Location: Peterborough
(44.3091°N, 78.3197°W)
Time: 04:37:36
(UTC-04:00)

Tiros 1 despin weight - Pass Details

Date: 25 March 2023
Orbit: 586 x 632 km, 48.2° (Epoch: 08 June)

Event Time Altitude Azimuth Distance (km) Brightness Sun altitude
Rises 02:42:31 0° 291° (WNW) 2,837 - -40.4°
Reaches altitude 10° 02:44:48 10° 292° (WNW) 1,940 - -40.2°
Maximum altitude 02:49:15 82° 19° (NNE) 616 - -39.8°
Drops below altitude 10° 02:53:47 10° 109° (ESE) 1,966 - -39.4°
Sets 02:56:06 0° 110° (ESE) 2,878 - -39.1°
